Lid_Strength_Index
7 7 7 7 6 6 7 7 7 6 6 6 7 7 8 7 7 7 6 6 6 6 7 6 6 5 5 4 4 3 3 3 2 4 5 4 4 2 1 1 1 0 0
8 8 7 7 7 7 7 7 7 7 7 7 8 8 8 8 8 7 7 7 7 7 7 7 6 6 6 5 5 4 4 3 2 4 5 7 4 5 2 1 1 1 0
8 8 7 7 7 7 7 7 7 7 7 8 8 8 8 8 8 8 7 7 7 7 7 7 7 6 6 6 5 5 5 6 3 3 4 6 7 5 6 6 2 1 1
7 7 7 8 7 7 7 7 7 8 8 8 9 10 10 11 9 9 8 8 7 8 7 7 7 7 7 7 6 6 6 6 6 4 3 4 4 6 6 8 10 3 2
8 8 8 8 8 7 7 7 8 8 8 9 9 10 10 10 9 9 9 8 8 8 8 8 8 8 8 7 7 6 6 6 6 6 4 4 4 5 6 9 7 11 9
8 8 8 8 8 7 7 8 8 9 9 9 10 10 10 10 10 10 10 9 9 9 9 9 9 9 9 9 8 7 7 7 6 5 5 4 5 5 6 7 5 7 8
8 9 9 8 8 8 8 8 9 10 9 10 10 10 10 10 10 11 11 11 11 11 11 10 9 10 9 9 9 9 9 8 8 7 6 5 4 3 3 5 6 5 8
8 8 9 9 9 9 9 9 10 10 10 10 10 10 10 10 10 11 11 11 12 12 11 11 10 10 10 10 9 9 10 9 9 8 7 7 5 4 3 4 4 9 11
8 9 9 9 9 9 9 10 10 10 10 10 10 10 10 10 11 11 11 12 12 11 11 11 11 10 10 10 10 10 10 9 9 8 8 7 7 5 4 3 3 4 7
9 9 10 9 9 9 10 10 10 11 10 10 10 10 10 10 11 11 12 12 12 12 12 12 12 11 11 10 10 10 9 10 9 9 9 8 7 6 5 4 3 3 5
9 9 10 9 9 10 10 10 11 11 11 10 10 10 10 10 11 12 12 13 13 13 12 13 12 12 11 11 11 11 10 10 9 8 9 9 8 7 6 4 3 3 4
9 8 10 10 10 10 10 11 11 12 11 10 10 10 10 11 12 13 13 13 13 13 13 13 12 12 12 11 11 11 10 10 10 8 9 9 8 8 6 6 5 4 4
10 10 10 11 10 10 11 12 12 12 11 11 10 10 12 12 13 14 14 14 14 14 13 13 13 12 12 12 12 11 11 10 9 9 10 9 8 9 7 6 6 4 4
10 10 11 10 10 11 12 13 13 12 12 11 11 12 12 13 13 14 14 14 14 14 13 13 13 13 12 12 12 12 11 10 9 9 9 9 9 9 8 6 6 7 5
12 12 12 11 11 12 13 14 15 14 12 12 13 13 13 13 14 14 14 14 14 13 13 13 13 12 12 12 12 12 11 11 10 9 10 10 9 8 7 6 7 7 6
13 13 13 13 13 13 14 14 15 15 13 14 14 13 14 14 14 14 14 14 14 13 13 13 13 13 12 10 9 11 11 11 11 10 9 9 9 9 7 7 7 7 6
12 13 13 13 13 13 14 16 16 15 14 14 14 14 14 15 14 14 14 14 14 13 13 14 12 13 12 10 9 10 11 11 11 11 10 10 9 9 9 8 7 8 7
13 13 13 13 13 13 16 17 17 16 15 14 14 14 17 17 15 15 14 14 13 14 14 14 13 13 12 11 11 12 12 12 12 12 11 11 11 10 10 12 12 13 12
13 13 13 13 14 16 17 18 18 16 16 14 14 16 17 17 16 16 14 13 14 14 14 14 15 14 13 12 12 13 13 13 14 13 12 12 12 11 11 12 14 14 13
15 15 14 15 16 17 17 18 17 16 16 14 15 17 16 17 17 15 14 14 13 14 14 14 15 15 14 12 12 13 14 14 14 13 13 12 12 11 12 13 14 16 15
16 15 16 16 17 17 18 18 17 16 14 16 16 16 15 15 14 13 12 13 14 14 15 14 14 15 15 14 12 13 14 14 15 15 14 13 12 12 13 13 15 16 15
16 15 16 16 16 17 17 17 16 15 16 16 16 15 15 13 13 13 13 13 13 14 14 14 14 14 14 14 13 13 13 14 15 16 15 14 13 14 14 15 15 15 17
14 15 15 15 15 17 15 15 14 15 16 17 17 16 15 14 13 13 13 13 13 14 15 15 14 14 14 15 14 14 14 14 15 15 15 15 15 16 16 15 15 17 17
14 14 15 15 14 14 15 14 13 15 16 17 17 16 16 14 14 13 13 13 13 14 14 15 14 14 14 15 15 15 15 16 17 16 17 15 15 16 17 18 18 19 18
14 14 15 15 14 13 15 14 14 15 16 17 16 16 15 14 14 14 13 13 14 14 14 14 14 15 15 15 14 15 16 16 16 17 17 18 18 19 19 20 19 19 19
14 15 15 15 14 13 14 14 14 16 16 16 16 15 15 15 14 14 14 13 13 13 13 13 13 13 13 13 13 14 14 15 15 17 18 19 20 20 20 21 21 20 21